FENGYUN 1C DEB

Satellite information

Favourite Embed

Satellite Type and Status

DEBRISIN ORBIT

Key statistics

Satellite FENGYUN 1C DEB at a glance.

Uptime

9714

Days in orbit

Revolutions

≈ 14.1

Per day

Orbit

SSO

Sun Synchronous Orbit

Inclination

99.3

Latest

Satellite identification and parameters

Extended collection of information and parameters for FENGYUN 1C DEB.

Object identification

Identified? True

Debris? True

Object name: FENGYUN 1C DEB

International designator: 1999-025ANR

Object number (NORAD): 30634

Object ID (CCSDS): 30634

Country: PEOPLES REPUBLIC OF CHINA (PRC)

Current information (Y/N): Y

RCS size: SMALL

Orbital parameters

Period: 102.149 minutes

Inclination: 99.2928 deg

SMA: 7238.535 km

Apoapsis: 947.785 km

Periapsis: 773.015 km

RAAN: 328.7636 deg

Eccentricy: 0.0120722

Argument of periapsis: 98.7811 deg

Mean anomaly: 328.5761 deg

Mean motion: 14.09700105 rev/day

Mean motion (dot): 0.0000602 rev/day2

B* drag term: 0.0032295 1/REarth

Two-line elements (TLE)

Creation date: Dec. 12, 2025, 7:26 a.m.

Reference frame: TEME

Reference center: EARTH

Epoch: Dec. 11, 2025, 11:14 p.m. UTC

TLE line 0: 0 FENGYUN 1C DEB

TLE line 1: 1 30634U 99025ANR 25345.96856056 .00006020 00000-0 32295-2 0 9996

TLE line 2: 2 30634 99.2928 328.7636 0120722 98.7811 328.5761 14.09700105956065

Live tracking on map

Real-time ground track for satellite FENGYUN 1C DEB.

In-orbit conjunctions

A list of the most updated potential collisions computed for object FENGYUN 1C DEB.

Target Orbit TCA Probability of collision Miss distance Type
FAISAT LEO 2024-11-21 21:41:27 0.0002484507 281.0 (m) PAYLOAD
HILAT LEO 2024-09-06 10:34:36 0.0002917366 595.0 (m) PAYLOAD
ASTRID LEO 2024-06-27 09:00:44 0.0002353729 755.0 (m) PAYLOAD

Associated space launch

Chinese polar orbiting meteorological satellite

FENGYUN 1C DEB was lifted into orbit during the mission ‘Long March 4B | Feng Yun 1C’, on board a Long March 4B space rocket.

The launch took place on May 10, 1999, 1:33 a.m. from Launch Complex 7.

For more information about the launch, click the button.

Launch to space Long March 4B | Feng Yun 1C
Long March 4B | Feng Yun 1C

Agency: N/A

Status: Launch Successful

Launch date: May 10, 1999, 1:33 a.m. UTC

Rocket: Long March 4B

Launch pad: Launch Complex 7

Location: Taiyuan Satellite Launch Center, People's Republic of China

...

Latest news about this satellite

There are no fresh news available about this satellite. Check back as we update our databases every day.


Newsletter sign-up

Weekly statistics, charts and insights to help you stay on top of the space industry.